Wind_Speed
14 14 15 16 16 17 18 20 21 22 23 24 25 26 26 27 28 29 30 30 31 32 33 33 33 33 34 34 35 35 35 35 35 35 36 36 36 35 35 35 35 35 36
15 15 16 17 18 19 19 21 22 23 24 25 25 26 27 28 29 29 30 31 32 33 33 33 33 34 34 35 35 35 35 36 36 36 36 36 36 36 36 37 37 37 37
16 16 17 18 19 20 21 22 23 24 25 25 26 27 28 29 29 30 31 32 32 33 34 34 34 35 35 36 36 36 36 36 36 36 37 37 37 37 37 38 38 38 39
17 18 18 19 20 21 22 23 24 24 25 26 27 28 29 29 30 31 31 32 33 34 34 34 35 36 36 37 37 37 37 37 37 37 38 38 38 38 39 39 40 40 41
19 20 20 20 21 22 23 24 25 25 26 27 28 29 29 30 31 31 32 33 34 34 35 35 36 37 37 37 37 38 38 38 38 39 39 39 39 39 40 41 42 42 42
21 21 21 22 22 23 24 25 25 26 27 28 29 29 30 31 31 32 33 34 34 35 35 36 37 37 37 38 38 39 39 39 40 40 40 41 41 42 42 43 43 44 44
23 23 23 23 24 25 25 26 26 27 28 29 29 30 30 31 32 33 34 34 35 35 36 37 37 38 39 39 40 40 41 41 42 42 42 43 43 44 44 45 45 46 46
24 25 25 25 26 26 27 27 28 29 29 30 30 30 31 32 33 34 34 35 36 36 37 38 39 39 40 41 42 42 43 43 43 44 44 45 45 46 47 47 48 49 49
26 26 27 27 27 27 28 29 29 30 30 31 31 32 32 33 33 34 35 36 36 37 38 39 40 41 41 42 43 44 44 45 45 46 47 47 47 48 49 50 51 51 52
28 28 28 28 29 29 30 30 31 31 31 32 32 33 33 34 34 35 36 36 37 38 39 40 41 42 43 44 45 45 45 46 47 48 49 49 50 51 52 53 53 54 55
30 30 29 30 30 31 31 31 32 32 32 33 33 34 34 35 36 36 36 37 38 39 40 41 42 43 44 45 46 46 47 48 49 50 51 52 53 54 55 56 57 57 58
31 31 31 31 32 32 32 32 33 33 33 34 34 35 35 36 37 37 37 38 39 40 41 42 43 44 45 46 47 48 49 50 51 52 53 54 56 57 58 59 60 60 60
33 32 32 32 33 33 33 34 34 34 35 35 35 36 36 37 38 38 39 39 40 40 41 43 44 45 46 47 48 49 50 52 53 54 56 57 59 60 61 62 62 61 61
34 34 33 34 34 34 34 35 35 35 36 36 36 37 37 38 39 39 40 41 41 41 42 43 45 46 47 48 49 50 52 54 55 57 58 59 61 62 62 62 61 60 60
34 35 35 35 35 35 35 36 35 36 36 36 37 37 38 38 39 40 41 41 42 42 43 44 46 47 48 49 51 52 54 56 57 59 61 61 62 62 61 60 60 59 59
36 36 36 36 36 36 36 36 36 36 36 36 37 38 38 39 40 41 41 42 43 44 44 45 46 47 49 50 52 54 55 57 59 61 61 62 62 61 60 60 60 59 58
37 36 36 36 37 37 37 37 36 36 36 37 37 38 39 40 40 41 42 42 44 44 45 46 47 48 50 51 53 55 58 60 61 61 62 62 61 60 60 59 57 56 55
38 37 37 37 37 37 38 37 36 36 37 37 38 39 39 40 41 41 42 43 44 45 46 47 48 49 51 53 55 57 59 61 61 62 62 61 60 59 58 56 56 55 55
38 38 38 38 38 39 38 37 36 36 37 38 39 39 40 40 41 41 42 43 45 46 47 48 49 50 52 54 56 58 60 61 61 62 61 60 58 57 57 56 56 55 54
40 39 39 39 39 39 38 37 37 37 38 39 40 40 40 41 41 42 43 44 45 46 48 49 50 51 53 55 57 58 59 60 60 61 60 58 57 57 56 55 54 53 52
40 40 39 40 39 39 38 37 37 38 38 39 40 40 40 41 42 42 43 45 46 47 48 50 51 52 54 55 57 58 59 59 59 59 58 57 57 56 55 53 52 51 50
40 40 40 39 38 38 37 36 37 38 39 40 41 41 41 41 42 43 44 45 46 48 49 50 51 53 54 56 57 58 59 59 58 57 56 56 55 54 53 52 51 50 49
40 40 39 38 37 36 36 37 38 38 39 40 41 41 41 42 42 43 44 45 47 48 49 51 52 53 55 56 58 59 59 58 57 56 55 54 54 53 51 50 50 49 48
39 39 38 37 37 37 37 38 38 38 39 39 40 40 41 42 43 43 44 45 47 49 50 51 52 54 55 57 58 58 58 57 57 56 55 53 52 52 51 50 49 48 48
39 38 37 36 37 37 37 37 38 38 38 39 40 40 41 42 43 43 45 46 48 49 50 51 52 54 56 57 58 58 57 56 55 55 54 52 51 51 50 49 49 48 47
37 37 37 37 37 38 38 38 38 39 39 39 40 41 41 42 43 44 45 46 47 48 49 51 52 54 56 57 57 57 56 56 55 53 52 52 51 50 49 48 48 47 46
Wind_Direction
275 283 289 293 297 301 304 307 310 312 314 315 315 316 316 316 316 316 316 317 317 316 315 315 314 313 313 312 311 311 310 309 307 307 306 305 304 303 301 300 299 297 295
273 281 287 292 297 301 304 307 309 310 312 313 315 316 316 316 316 317 317 316 316 316 316 315 314 313 312 312 311 311 310 309 308 307 306 305 304 303 302 300 299 298 297
273 279 287 292 296 299 303 305 307 309 310 312 314 315 315 316 316 316 316 316 316 316 315 314 313 313 312 312 311 311 310 309 308 308 307 306 305 303 302 301 300 299 297
273 279 286 291 294 298 301 303 305 307 309 311 312 314 314 314 315 315 315 315 315 315 314 313 313 312 312 311 311 310 310 309 308 308 307 306 305 304 303 301 300 299 298
273 279 285 289 293 297 300 302 304 306 308 310 311 312 313 313 314 314 314 314 314 314 313 312 312 312 312 311 311 310 310 309 308 308 307 306 305 304 303 301 300 299 298
273 278 283 287 292 295 298 301 303 305 306 308 310 311 312 312 312 313 313 313 313 313 312 312 312 312 311 311 310 310 309 309 308 308 307 306 305 304 303 301 300 299 298
272 277 281 285 290 294 296 299 302 303 305 307 308 309 310 311 311 312 312 312 312 312 311 311 311 311 311 311 310 309 309 309 308 307 307 306 305 304 303 301 300 298 297
271 276 280 284 288 292 295 297 300 302 304 305 307 308 309 310 310 311 311 311 311 311 311 311 311 310 310 310 310 309 309 308 308 307 306 305 304 303 302 301 300 298 297
270 275 279 283 286 290 293 295 298 300 302 303 304 306 308 308 309 310 310 310 310 310 309 310 310 310 310 309 309 309 308 308 308 307 306 306 305 304 303 302 300 298 297
269 274 278 281 285 288 291 294 296 298 300 301 303 305 306 307 308 308 308 309 309 309 309 309 309 309 309 310 309 309 308 308 308 307 307 306 305 304 303 302 301 299 297
268 273 277 281 284 287 289 292 294 296 298 299 301 303 304 306 306 307 307 307 308 308 308 308 308 309 309 309 309 308 308 308 308 308 307 306 305 304 304 303 301 300 298
267 271 276 279 283 286 288 290 292 295 296 297 299 301 303 304 305 306 307 307 307 307 308 308 308 309 309 309 309 309 308 308 308 308 307 307 305 305 304 303 302 300 298
266 270 274 278 282 285 287 289 291 293 294 295 297 299 301 302 304 305 306 306 306 307 307 308 308 309 310 310 310 309 308 308 308 308 308 308 306 306 305 303 302 301 299
266 269 272 276 280 283 286 288 290 292 293 294 296 299 300 301 302 304 305 306 306 307 307 307 308 309 309 310 310 309 309 309 309 309 309 308 308 307 306 305 303 302 301
265 269 272 275 278 281 285 287 289 291 292 294 296 298 299 300 301 303 304 305 306 306 307 308 308 309 309 309 310 310 310 310 310 310 310 309 308 308 308 306 305 304 303
265 268 272 275 278 281 283 285 287 289 291 293 295 297 298 299 301 303 304 305 305 306 307 308 309 309 310 310 311 311 311 311 311 311 311 310 310 310 308 307 306 306 304
265 268 271 274 277 280 282 284 286 288 290 293 295 297 298 299 301 302 303 304 305 306 308 309 309 310 311 311 312 312 312 312 312 312 311 311 311 310 309 309 308 308 307
264 267 270 274 276 279 282 283 285 288 290 293 295 297 298 299 301 302 303 304 305 307 308 309 310 310 311 312 312 313 313 313 313 313 313 312 312 311 311 310 310 309 308
264 267 270 272 276 279 280 281 285 287 290 293 295 296 297 299 301 302 303 305 306 307 308 309 310 311 312 312 313 314 314 314 314 314 314 313 312 312 312 311 310 309 308
263 266 268 271 275 277 279 281 284 287 290 292 295 295 296 298 300 302 303 304 305 307 309 310 311 312 312 313 314 315 315 316 315 315 314 314 313 313 313 312 311 311 309
262 265 268 271 273 275 278 281 284 286 289 292 293 295 296 298 300 301 302 303 305 307 309 310 312 312 313 314 315 316 317 317 316 316 315 315 314 314 313 313 312 312 310
261 264 268 270 273 275 277 280 283 285 289 291 292 294 296 298 300 301 302 304 306 308 309 311 313 314 314 315 316 317 318 317 317 317 316 315 315 314 314 314 313 312 312
261 265 268 270 273 275 277 280 283 285 287 290 292 294 296 298 300 301 303 305 307 309 310 312 313 315 316 317 318 318 319 319 318 318 317 317 316 316 315 315 314 314 314
262 265 268 270 273 275 277 279 283 285 287 290 293 295 296 298 300 302 304 306 308 310 311 313 314 316 317 318 319 319 320 320 319 319 319 319 318 317 317 316 316 316 315
262 264 266 269 271 274 277 280 282 285 287 290 292 294 297 298 300 302 304 306 308 310 311 313 315 316 317 318 319 320 320 320 320 320 319 319 319 318 317 317 317 316 316
260 263 265 268 271 274 277 280 282 285 287 290 292 294 296 298 300 302 304 306 308 310 312 314 315 317 318 319 320 320 321 321 321 320 320 319 319 318 317 317 317 317 317
Height
5846 5846 5845 5844 5843 5842 5841 5839 5837 5835 5832 5830 5827 5824 5821 5818 5815 5811 5808 5804 5800 5796 5792 5788 5785 5781 5777 5773 5769 5765 5761 5757 5753 5750 5746 5742 5739 5735 5731 5728 5725 5722 5719
5842 5842 5842 5841 5839 5838 5837 5835 5833 5831 5828 5826 5823 5820 5816 5813 5810 5806 5802 5799 5795 5791 5787 5783 5779 5775 5771 5767 5763 5759 5755 5751 5747 5743 5739 5735 5731 5728 5724 5721 5717 5714 5711
5838 5838 5837 5837 5835 5834 5832 5831 5829 5826 5824 5821 5818 5815 5812 5808 5805 5801 5797 5793 5789 5785 5781 5777 5773 5769 5765 5761 5757 5752 5748 5744 5740 5736 5732 5728 5724 5720 5717 5713 5709 5706 5703
5834 5834 5833 5832 5831 5829 5828 5826 5824 5822 5819 5816 5813 5810 5806 5803 5799 5795 5792 5788 5784 5780 5775 5771 5767 5763 5759 5754 5750 5746 5742 5737 5733 5729 5725 5721 5717 5713 5709 5705 5701 5698 5694
5830 5829 5828 5827 5826 5825 5823 5821 5819 5816 5814 5811 5808 5805 5801 5797 5794 5790 5786 5782 5778 5774 5769 5765 5761 5756 5752 5748 5743 5739 5735 5730 5726 5722 5717 5713 5709 5705 5701 5696 5692 5689 5685
5825 5824 5823 5822 5821 5819 5818 5816 5814 5811 5808 5806 5802 5799 5796 5792 5788 5784 5780 5776 5772 5767 5763 5759 5754 5750 5745 5741 5736 5732 5727 5723 5718 5714 5709 5705 5701 5696 5692 5687 5683 5679 5675
5819 5819 5818 5817 5816 5814 5812 5810 5808 5806 5803 5800 5797 5793 5790 5786 5782 5778 5774 5770 5765 5761 5756 5752 5747 5743 5738 5734 5729 5724 5720 5715 5710 5705 5701 5696 5692 5687 5682 5678 5673 5669 5665
5813 5813 5812 5811 5810 5808 5806 5804 5802 5800 5797 5794 5791 5788 5784 5781 5776 5772 5767 5763 5759 5754 5750 5745 5740 5736 5731 5726 5721 5716 5711 5706 5701 5697 5692 5687 5682 5677 5672 5667 5662 5657 5653
5807 5807 5806 5805 5804 5802 5800 5798 5796 5794 5791 5788 5785 5782 5778 5775 5771 5766 5761 5756 5752 5747 5743 5738 5733 5728 5723 5718 5713 5708 5703 5698 5692 5687 5682 5677 5671 5666 5661 5656 5650 5645 5640
5801 5800 5799 5798 5797 5796 5794 5792 5790 5787 5784 5781 5778 5775 5772 5768 5764 5760 5755 5750 5745 5740 5735 5730 5725 5720 5715 5710 5704 5699 5694 5688 5683 5677 5672 5666 5660 5654 5649 5643 5637 5632 5626
5794 5793 5793 5792 5791 5789 5787 5785 5783 5780 5778 5775 5772 5768 5765 5761 5757 5753 5749 5744 5738 5733 5728 5723 5717 5712 5707 5701 5695 5690 5684 5678 5673 5667 5661 5654 5648 5642 5636 5629 5623 5617 5610
5786 5786 5786 5785 5783 5782 5780 5778 5776 5773 5771 5768 5764 5761 5757 5754 5749 5745 5741 5736 5731 5725 5720 5714 5709 5704 5698 5692 5686 5680 5674 5668 5662 5656 5649 5642 5636 5629 5622 5614 5607 5600 5594
5779 5778 5778 5777 5776 5775 5773 5771 5768 5766 5763 5760 5757 5753 5750 5746 5742 5738 5733 5728 5724 5718 5712 5706 5701 5695 5689 5683 5677 5670 5664 5657 5651 5644 5636 5629 5622 5614 5606 5598 5590 5583 5576
5771 5770 5770 5769 5768 5767 5765 5763 5761 5758 5755 5752 5749 5745 5742 5738 5734 5729 5725 5720 5715 5710 5704 5698 5692 5686 5680 5673 5667 5660 5653 5646 5639 5631 5623 5615 5607 5598 5590 5582 5574 5566 5559
5763 5762 5762 5761 5760 5759 5757 5755 5753 5750 5747 5744 5741 5737 5734 5729 5725 5721 5716 5711 5707 5702 5697 5690 5684 5677 5670 5664 5657 5650 5642 5634 5626 5618 5610 5601 5592 5583 5574 5566 5558 5550 5542
5754 5754 5753 5753 5751 5750 5748 5746 5744 5742 5739 5736 5732 5729 5725 5721 5717 5712 5707 5702 5697 5692 5687 5681 5674 5668 5661 5653 5646 5638 5630 5622 5613 5604 5595 5586 5577 5568 5559 5550 5542 5534 5526
5745 5745 5745 5744 5743 5741 5740 5738 5736 5733 5731 5728 5724 5720 5717 5712 5708 5703 5698 5693 5688 5682 5677 5671 5664 5657 5650 5643 5635 5626 5618 5609 5600 5590 5581 5572 5562 5553 5544 5535 5527 5519 5512
5736 5736 5736 5735 5734 5733 5731 5729 5727 5724 5722 5719 5715 5712 5708 5704 5699 5694 5689 5684 5678 5673 5667 5662 5655 5647 5640 5632 5624 5615 5605 5596 5586 5577 5567 5557 5548 5538 5530 5521 5513 5506 5498
5726 5726 5726 5726 5725 5723 5722 5720 5718 5716 5713 5710 5707 5703 5699 5695 5690 5685 5680 5675 5669 5663 5657 5651 5645 5637 5629 5621 5612 5603 5592 5582 5572 5563 5553 5543 5534 5525 5517 5508 5500 5492 5484
5717 5717 5717 5716 5716 5714 5713 5711 5709 5707 5704 5701 5698 5694 5690 5686 5681 5676 5671 5666 5660 5654 5647 5641 5634 5627 5618 5609 5600 5591 5581 5570 5560 5550 5539 5530 5521 5512 5504 5495 5488 5479 5472
5707 5707 5707 5707 5706 5705 5703 5702 5700 5698 5695 5692 5688 5685 5681 5676 5672 5667 5662 5656 5650 5644 5638 5631 5624 5616 5608 5599 5589 5580 5570 5560 5549 5538 5528 5518 5509 5501 5492 5483 5475 5467 5459
5697 5697 5697 5697 5696 5695 5694 5692 5691 5689 5686 5683 5679 5675 5671 5667 5662 5657 5652 5646 5641 5634 5627 5621 5613 5605 5596 5587 5578 5567 5557 5549 5540 5530 5518 5508 5498 5489 5480 5472 5464 5455 5448
5686 5687 5687 5686 5686 5685 5684 5683 5681 5679 5676 5673 5670 5666 5662 5657 5653 5648 5642 5637 5630 5623 5617 5610 5602 5593 5585 5577 5567 5557 5545 5535 5526 5516 5506 5497 5487 5478 5469 5461 5452 5445 5437
5676 5677 5677 5677 5676 5675 5674 5673 5671 5669 5666 5663 5660 5657 5653 5648 5643 5638 5633 5627 5620 5613 5606 5599 5592 5583 5574 5564 5555 5545 5534 5524 5514 5504 5494 5486 5477 5468 5459 5450 5442 5434 5426
5666 5667 5667 5667 5667 5666 5665 5663 5661 5659 5657 5654 5651 5647 5643 5639 5634 5629 5623 5617 5610 5603 5595 5588 5580 5571 5562 5553 5543 5533 5523 5514 5504 5494 5484 5476 5467 5458 5449 5440 5431 5423 5416
5656 5657 5657 5657 5657 5656 5655 5653 5652 5650 5647 5644 5641 5637 5633 5629 5624 5618 5613 5607 5601 5593 5585 5578 5569 5560 5551 5542 5532 5522 5513 5503 5494 5485 5475 5466 5457 5449 5441 5432 5423 5414 5406